Tracking 25963 objects as of 12-Aug-2022
HD Live streaming from Space Station
objects crossing your sky now

OBJECT P

Track OBJECT P now!
10-day predictions


NORAD ID: 43771
Int'l Code: 2018-099P
Perigee: 573.1 km
Apogee: 594.5 km
Inclination: 97.6 °
Period: 96.2 minutes
Semi major axis: 6954 km
RCS: Unknown
Launch date: December 3, 2018
Source: United States (US)
Launch site: AIR FORCE WESTERN TEST RANGE (AFWTR)
aabbcc
Your satellite tracking list
Your tracking list is empty




NASA's NSSDC Master Catalog

Two Line Element Set (TLE):
1 43771U 18099P   22223.70229748  .00001643  00000-0  14805-3 0  9994
2 43771  97.6184 288.7962 0015385  90.4715 269.8270 14.96839159201270
Source of the keplerian elements: AFSPC